Portada
METAR-TAF:

METAR-TAF

Aeroports :

Meriden-Markham Municipal Airport

Meriden, Connecticut, Estats Units d'Amèrica

latitud: 41-30-35N, longitud: 072-49-40W, altitud: 31 m

Observació

L'informe es va fer fa 34 minuts, a les 20:53 UTC
Vent calma
Temperatura 6°C
Humitat 75%
Pressió 1009 hPa
Visibilitat: 16.1 km
Cel cobert a una alçada de 1800 ft

METAR: KMMK 192053Z AUTO 00000KT 10SM OVC018 06/02 A2981 RMK AO2 SLP093 T00560017 53014

Hora: 16:27 (21:27 UTC)


TAF: manca

Observacions i pronòstics meteorològics de més de 4000 aeroports (METAR i TAF).

Les estacions disponibles són els punts grocs i vermells al mapa.

Posi el ratolí al punt desitjat per veure el nom de l'estació.

Feu clic per veure les observacions i els pronòstics meteorològics.

Per canviar el mapa: feu clic els botons verds amb una creu de color negre per apropar; al botó verd amb un guió per allunyar la imatge; o en les fletxes verdes per a mapes adjacents.


METAR-TAF: